Home   Weather   Firozpur   Past weeks

Flag for India Past Weather in Firozpur, Punjab, India — Yesterday and Last 2 Weeks

Now
99 °F

Clear.


Feels Like: 94 °F
Forecast: 75 / 101 °F
Wind: 3 mph from North

Location: Lahore Airport

Current Time: Apr 27, 2017 at 4:54:58 pm

Latest Report: Apr 27, 2017 at 4:25 pm


Visibility: 5 mi

Pressure: 29.74 "Hg

Humidity: 16%

Dew Point: 45 °F

Location of FirozpurLocation

Past Weather in Firozpur — Graph

°F

Firozpur Temperature Yesterday

Maximum temperature yesterday: 102 °F (at 3:25 pm)
Minimum temperature yesterday: 72 °F (at 6:25 am)
Average temperature yesterday: 85 °F

High & Low Weather Summary for the Past Weeks

 TemperatureHumidityPressure
High113 °F (Apr 18, 2:25 pm)100% (Apr 18, 7:00 am)29.83 "Hg (Apr 18, 7:00 am)
Low66 °F (Apr 24, 4:55 am)8% (Apr 18, 3:55 pm)29.45 "Hg (Apr 20, 4:25 pm)
Average89 °F37%29.68 "Hg
* Reported Apr 12 5:25 pm — Apr 27 3:55 pm, Firozpur, Weather by CustomWeather, © 2017

Note: Actual official high and low records may vary slightly from our data, if they occured in-between our weather recording intervals... More about our weather records

Advertising

Firozpur Weather History for the Previous 24 Hours

Scroll right to see more
 ConditionsComfort  
Time TempWeatherWind HumidityBarometerVisibility
3:55 pm
Thu, Apr 27
100 °FClear.3 mph13%29.74 "Hg5 mi
3:25 pm100 °FClear.7 mph13%29.74 "Hg5 mi
2:55 pm100 °FClear.7 mph15%29.77 "Hg5 mi
2:25 pm100 °FClear.7 mph15%29.77 "Hg5 mi
1:55 pm100 °FClear.6 mph16%29.77 "Hg5 mi
1:25 pm99 °FClear.5 mph17%29.80 "Hg5 mi
12:25 pm95 °FClear.5 mph20%29.80 "Hg5 mi
11:55 am95 °FClear.7 mph22%29.80 "Hg5 mi
11:25 am93 °FClear.6 mph23%29.83 "Hg5 mi
10:55 am91 °FClear.9 mph18%29.83 "Hg4 mi
10:25 am90 °FClear.9 mph20%29.83 "Hg4 mi
9:25 am84 °FClear.9 mph33%29.80 "Hg4 mi
9:00 am82 °FClear.9 mph35%29.80 "Hg4 mi
8:25 am79 °FClear.10 mph39%29.80 "Hg4 mi
7:25 am73 °FHaze.8 mph50%29.80 "Hg3 mi
6:25 am73 °FPassing clouds.5 mph50%29.77 "Hg2 mi
3:25 am79 °FPassing clouds.5 mph39%29.74 "Hg2 mi
2:25 am81 °FThundershowers. Passing clouds.5 mph34%29.74 "Hg2 mi
1:25 am82 °FThundershowers. Passing clouds.3 mph32%29.74 "Hg2 mi
12:25 am82 °FPassing clouds.No wind30%29.74 "Hg2 mi
11:25 pm
Wed, Apr 26
82 °FThunderstorms. Partly cloudy.17 mph30%29.74 "Hg2 mi
11:02 pm82 °FThunderstorms. Passing clouds.12 mph30%29.77 "Hg2 mi
10:30 pm82 °FPassing clouds.14 mph30%29.77 "Hg2 mi
8:30 pm90 °FPassing clouds.17 mph22%29.74 "Hg2 mi
7:30 pm93 °FPassing clouds.5 mph21%29.68 "Hg3 mi
6:25 pm95 °FPassing clouds.6 mph20%29.68 "Hg4 mi
5:25 pm97 °FExtremely hot.N/A18%29.68 "HgN/A
4:55 pm99 °FClear.9 mph16%29.68 "Hg5 mi
4:25 pm100 °FClear.9 mph15%29.68 "Hg5 mi
Weather by CustomWeather, © 2017

See weather overviewHow to use our weather pages